Wind_Speed
20 21 22 23 23 24 24 24 23 22 22 22 23 22 21 17 20 17 10 15 14 14 10 6 5 8 7 2 2 2 3 3 4 2 3 4 2 3 2 5 4 4 3 5 29
22 23 22 22 23 24 25 26 25 24 21 23 23 24 24 17 20 17 24 9 13 18 12 10 5 7 2 4 3 4 4 9 5 1 2 3 3 2 3 3 3 5 7 23 29
24 24 24 24 24 24 24 25 26 25 25 23 24 23 25 18 8 6 2 19 15 14 13 9 11 6 5 3 5 6 5 5 1 4 4 2 4 2 5 1 3 5 10 10 19
25 25 26 26 25 26 26 26 26 25 24 23 23 23 23 12 6 6 11 14 14 12 8 3 3 5 5 7 6 4 7 7 7 2 3 4 4 4 3 7 7 6 14 8 8
26 27 27 28 29 29 28 28 29 28 26 24 22 18 11 6 9 8 13 14 13 13 9 6 6 5 5 5 4 6 6 7 5 4 4 3 5 5 6 6 4 9 14 13 10
27 28 28 27 27 28 29 30 29 30 30 26 23 14 3 13 13 14 18 15 12 14 9 8 5 6 4 6 5 2 1 3 3 4 4 5 5 4 5 10 9 9 10 12 12
27 28 29 30 30 31 33 32 32 31 31 28 24 18 10 21 6 14 16 15 16 16 5 9 6 4 3 2 4 4 3 6 4 5 6 5 6 9 11 5 7 8 9 9 10
28 28 29 30 30 33 34 35 35 34 32 28 23 18 9 15 15 24 18 13 10 9 7 9 10 3 2 1 5 2 2 1 6 8 6 9 7 7 9 13 8 7 5 8 6
28 29 30 32 31 34 37 36 39 41 35 26 17 7 8 8 18 20 19 12 11 8 7 9 6 4 2 4 3 3 4 7 6 3 6 5 5 3 4 8 7 6 5 7 7
28 29 32 31 33 39 40 34 29 23 9 8 17 6 8 10 6 16 22 18 6 7 4 3 3 3 2 4 6 7 4 3 5 5 5 6 6 6 3 6 9 9 7 6 8
29 29 31 32 33 39 32 16 6 5 8 8 11 8 12 10 8 10 19 12 7 5 6 4 4 7 12 11 6 4 2 4 4 3 4 7 7 10 7 6 6 5 7 5 6
30 30 31 32 33 32 21 7 10 12 12 15 19 20 32 24 6 3 21 7 6 5 5 3 9 9 10 10 11 10 6 3 4 1 2 5 10 9 8 2 6 8 6 6 4
31 32 35 32 35 7 28 9 23 20 5 11 12 9 15 11 16 9 14 7 6 7 7 6 5 15 12 7 5 5 5 3 6 2 3 1 7 4 3 7 8 6 4 4 5
32 34 34 35 14 20 16 24 28 18 4 7 5 5 6 10 12 12 19 11 5 14 7 9 11 4 5 4 5 4 1 5 4 4 3 3 4 5 4 3 5 6 6 6 4
36 36 38 25 18 6 19 21 17 4 4 4 2 5 3 8 0 15 24 12 8 6 6 6 5 8 5 3 5 4 6 5 3 3 3 3 3 6 6 3 5 6 7 6 4
36 40 31 20 14 11 22 20 3 2 5 5 4 6 2 7 4 4 6 6 4 2 6 3 2 4 3 4 5 8 5 6 5 3 2 7 6 4 4 6 6 4 5 6 4
39 37 21 15 8 18 14 3 1 2 7 9 6 10 7 6 3 3 5 6 6 4 3 4 1 3 4 6 4 5 6 2 1 1 5 4 3 7 2 3 7 10 7 4 2
38 29 19 7 18 11 5 4 3 5 4 2 4 7 4 7 2 3 7 5 3 5 3 5 4 4 3 4 6 5 6 5 6 3 2 4 4 5 4 7 8 4 4 3 3
35 23 11 10 17 5 3 3 4 4 6 7 6 4 1 2 2 3 4 6 3 4 4 4 2 2 6 4 5 4 1 4 5 2 3 4 0 3 4 4 4 4 3 3 5
25 10 6 12 13 1 2 3 4 8 9 5 3 4 4 3 4 6 6 2 5 3 5 1 5 2 2 3 4 4 4 3 3 2 3 4 4 4 6 7 5 2 5 5 4
12 4 4 22 3 1 1 4 5 9 6 5 2 3 3 4 10 3 4 5 4 1 6 3 3 2 3 3 6 1 2 3 4 3 4 1 4 5 7 7 7 6 5 5 5
8 3 12 19 4 1 2 10 8 6 4 4 4 4 3 4 5 5 5 5 8 2 3 4 4 3 5 1 2 3 6 5 4 5 2 3 5 1 6 7 5 5 5 4 4
4 3 5 6 4 4 6 7 4 7 5 3 4 1 1 1 3 4 6 6 10 5 2 2 2 1 1 4 4 1 3 4 5 3 3 4 4 4 3 3 5 4 4 4 4
2 4 4 3 0 3 8 4 7 6 2 5 3 4 4 4 2 3 3 4 5 4 10 4 2 4 4 5 3 1 3 3 5 3 3 5 2 4 6 7 4 2 2 4 4
1 3 1 4 5 9 8 2 11 7 6 7 6 7 2 3 4 3 3 3 3 5 4 4 2 4 5 7 3 4 4 3 5 5 5 4 4 5 6 6 3 2 2 3 3
0 2 4 4 6 5 3 4 9 8 2 5 4 7 6 4 2 2 5 3 3 3 2 3 0 2 4 3 5 5 8 8 7 9 8 9 16 4 4 5 3 2 2 3 4
3 2 1 5 5 3 3 6 12 14 0 2 6 1 3 4 6 4 4 4 5 6 3 3 2 3 4 4 4 5 6 5 5 3 6 9 6 3 3 5 4 1 3 4 5
Wind_Direction
358 355 354 351 349 346 344 341 341 341 340 334 330 326 322 313 308 296 247 242 242 214 188 160 203 226 256 247 167 81 97 217 245 261 296 342 61 19 161 93 54 40 119 177 154
354 351 350 347 343 341 337 335 335 336 336 332 330 326 322 316 309 267 264 232 205 196 184 178 197 207 223 211 192 138 169 209 217 74 115 19 70 156 87 91 100 70 67 128 149
348 345 342 341 338 336 331 328 328 330 331 331 327 326 322 320 299 244 227 182 185 195 188 187 220 175 215 200 206 192 204 239 145 117 89 29 3 355 111 293 155 168 166 151 151
349 346 342 336 333 329 328 325 322 321 323 323 325 322 317 307 274 193 171 165 173 173 171 216 222 170 198 218 212 222 227 240 293 127 125 143 338 323 202 213 138 163 165 151 159
342 338 336 330 325 327 322 321 320 318 315 316 319 320 325 265 246 193 173 169 169 170 188 201 192 177 210 212 239 224 233 239 255 197 184 154 231 230 274 258 306 130 159 171 172
344 339 341 337 335 332 326 322 314 313 311 309 311 305 239 261 260 220 195 183 191 182 194 204 204 194 236 225 181 329 150 290 294 285 261 195 234 168 246 239 248 152 181 178 179
344 342 341 334 333 330 323 315 310 308 304 303 300 286 239 240 241 197 184 198 198 195 195 227 131 118 15 327 324 343 337 333 283 252 233 167 277 230 234 197 188 179 167 186 188
343 341 339 339 335 329 322 315 307 299 293 296 295 268 248 252 263 243 194 197 209 195 128 115 109 96 146 24 358 332 31 316 270 233 224 130 262 266 303 185 186 183 193 175 200
341 343 341 337 333 330 326 318 304 296 288 284 279 199 258 250 228 224 190 178 184 160 119 115 95 162 101 114 5 256 229 214 298 185 142 155 242 286 81 122 166 198 204 162 126
342 341 340 336 333 329 330 323 335 325 315 247 235 207 266 245 187 197 190 181 151 111 81 98 116 142 111 131 207 211 211 258 232 229 149 185 249 237 237 162 190 201 137 103 110
342 338 336 336 330 335 337 340 358 343 8 295 299 257 317 211 140 176 185 170 129 128 155 208 147 191 208 211 215 218 202 229 270 245 125 204 223 248 241 204 215 84 119 91 90
340 337 335 334 331 333 347 333 358 324 300 271 262 255 268 273 298 239 186 153 163 167 185 158 221 214 212 219 228 232 228 227 311 128 100 242 248 248 255 171 152 135 123 142 108
338 333 335 336 331 343 341 331 343 342 279 287 242 232 223 225 240 210 167 182 169 179 197 200 222 214 214 229 179 185 169 198 218 180 274 293 307 315 43 95 104 94 128 136 153
336 334 333 334 333 327 303 329 330 330 301 278 234 252 191 193 255 198 177 175 204 204 213 241 229 212 139 179 130 186 154 186 153 78 216 74 274 305 165 131 115 122 124 130 116
331 331 333 337 301 295 323 327 330 318 1 287 318 301 318 166 213 185 177 192 189 185 157 246 139 153 154 180 180 183 98 110 94 102 55 319 78 266 120 196 166 150 136 147 180
333 331 339 338 316 306 321 313 344 49 266 309 359 327 345 161 21 2 143 21 23 251 221 221 52 94 109 57 125 143 89 48 49 90 359 227 160 265 193 195 138 143 134 155 191
334 335 338 336 318 322 331 7 82 205 324 351 352 335 308 153 330 112 135 185 149 115 199 174 259 30 118 88 20 80 79 19 338 259 227 278 134 243 217 108 151 151 153 154 202
334 337 337 338 329 324 1 48 80 265 10 316 302 329 316 22 153 266 143 163 202 92 143 150 190 191 186 153 175 178 149 157 198 196 260 348 234 267 53 71 94 119 160 88 2
332 338 335 333 346 325 53 42 222 347 273 327 331 352 196 305 319 150 207 166 39 144 160 131 100 39 55 26 114 196 143 175 101 245 67 214 133 0 116 94 112 111 33 299 296
324 312 315 328 347 334 51 260 288 338 324 345 2 42 325 311 237 180 158 126 126 108 245 203 99 34 13 35 28 142 172 72 0 115 275 277 202 222 186 183 174 229 273 277 276
327 350 314 342 342 69 316 266 299 281 347 339 316 298 290 351 292 105 40 54 63 2 72 92 84 300 73 210 181 39 14 57 119 165 175 256 269 213 203 173 180 230 256 275 298
339 334 336 341 29 346 300 304 281 294 360 341 349 354 347 335 329 43 72 64 5 16 59 39 116 141 206 318 327 206 191 150 131 259 206 141 275 314 153 176 170 228 257 270 262
316 264 315 358 19 339 306 300 294 330 324 339 334 16 312 1 9 28 64 31 21 32 122 66 81 77 291 359 359 227 217 128 109 83 210 146 258 149 178 277 244 219 264 283 310
314 322 321 27 217 323 326 319 322 315 28 344 310 334 11 356 66 97 88 42 23 13 55 77 79 161 187 202 149 313 299 187 135 132 207 223 208 199 221 237 226 239 282 303 331
19 290 214 312 327 317 305 336 312 349 1 1 359 4 53 24 18 96 78 117 46 5 37 86 163 151 241 246 225 228 219 192 175 185 172 228 172 230 230 241 206 209 291 312 338
38 27 346 273 291 310 359 314 342 326 284 330 10 353 46 43 99 159 137 150 163 11 62 22 242 54 303 323 193 242 245 230 246 233 253 266 281 265 132 114 120 197 319 322 327
315 294 108 289 311 6 355 326 321 320 229 355 330 332 62 43 10 77 73 57 135 134 107 141 107 47 279 18 11 335 236 221 215 223 195 239 252 183 163 164 158 182 305 309 309
Height
818 815 812 810 809 807 803 801 796 792 788 787 785 782 776 771 769 765 761 756 757 758 759 762 765 767 768 767 765 765 784 787 772 760 762 751 753 749 751 755 757 762 764 764 772
818 815 810 806 806 803 802 800 796 791 785 785 781 780 776 771 765 758 747 750 752 754 756 758 762 766 771 768 767 775 786 773 757 753 759 756 754 753 755 757 763 768 767 768 773
820 815 811 807 804 801 798 797 793 788 784 781 780 777 775 770 761 746 742 742 748 752 753 755 758 762 770 767 766 768 775 760 752 754 754 757 757 752 757 761 760 764 770 770 772
818 815 811 807 802 800 795 793 790 785 782 779 776 775 772 771 765 740 742 742 744 748 751 753 755 760 767 769 761 765 759 757 752 752 754 757 758 759 757 758 756 757 764 769 772
818 814 808 806 802 798 793 788 785 781 777 775 772 773 771 766 751 741 741 742 744 745 748 752 755 757 764 760 759 762 758 753 751 755 754 754 759 762 759 754 753 757 762 766 770
817 814 807 803 798 794 790 785 781 777 773 770 769 769 767 766 740 737 739 740 741 744 744 747 749 750 756 757 760 753 755 755 752 753 754 756 758 759 755 751 754 759 762 763 766
815 811 805 802 796 790 786 780 777 772 766 765 764 764 760 744 739 738 738 739 740 741 742 743 746 748 755 754 752 752 757 757 755 753 754 753 760 757 749 749 752 754 759 762 763
813 809 804 798 791 787 781 774 768 762 758 760 758 759 746 733 732 735 737 738 740 740 741 742 743 749 752 753 755 758 760 767 754 747 752 754 766 749 744 745 753 755 755 759 761
813 806 802 796 789 783 776 767 758 748 750 753 755 753 742 727 726 726 731 735 738 739 741 742 744 751 753 764 773 765 776 767 759 744 751 754 759 746 744 747 753 754 756 760 764
809 804 800 793 786 779 771 761 748 740 740 744 749 752 734 723 720 723 729 733 737 739 742 747 750 759 764 773 784 770 766 757 758 751 749 756 755 750 747 748 752 754 761 764 770
808 802 798 791 784 777 770 760 754 750 747 745 740 734 722 717 719 721 725 733 736 741 750 749 759 766 759 755 754 752 749 751 750 743 749 757 755 749 747 749 753 763 770 777 774
807 801 795 788 781 775 773 771 769 767 748 739 735 729 727 723 726 722 725 735 737 745 745 748 756 750 748 749 751 751 754 752 748 746 750 753 755 749 744 748 758 766 771 777 776
807 800 792 786 778 774 773 771 768 763 758 729 719 718 716 718 720 722 723 729 734 743 744 751 737 733 741 743 743 747 751 751 754 752 750 751 760 767 754 758 763 771 774 778 781
805 798 790 783 778 775 771 768 765 763 760 731 713 708 707 711 713 714 717 725 729 733 740 737 731 729 733 738 745 751 744 745 749 762 781 756 792 761 755 766 763 771 775 778 782
803 796 788 781 779 774 772 766 763 763 796 710 709 702 701 710 708 706 712 719 728 725 734 735 727 732 736 737 739 751 750 751 753 776 777 771 804 765 759 763 765 771 774 779 783
800 792 784 779 777 773 769 765 764 772 796 717 713 709 708 707 711 714 716 719 723 727 725 728 727 729 736 746 741 750 754 760 772 783 826 793 777 763 765 761 764 772 775 778 780
798 789 783 778 777 772 768 765 767 767 731 733 734 735 717 717 721 722 729 738 740 752 745 734 733 737 737 752 749 755 769 798 789 785 804 780 775 762 743 753 762 777 779 777 782
795 787 782 779 776 771 769 774 793 753 743 736 736 732 728 724 728 725 730 739 730 737 748 741 744 744 739 744 756 762 767 795 782 805 767 760 787 759 763 770 778 785 785 777 779
792 784 780 778 774 772 775 799 769 751 743 732 726 734 734 728 732 728 731 737 733 737 742 747 752 745 746 744 750 756 779 763 792 789 791 768 758 766 769 773 775 781 786 787 784
793 784 780 778 775 773 779 772 756 747 740 734 740 739 744 733 733 728 727 736 738 741 741 750 760 746 748 746 750 754 756 779 797 817 807 757 755 765 768 773 776 779 790 789 785
792 790 780 776 773 775 775 774 756 745 742 742 742 750 738 742 732 723 730 735 737 737 737 748 760 762 753 756 762 765 783 769 775 773 805 792 763 777 775 783 782 785 784 783 782
797 801 781 777 784 778 778 769 759 745 742 744 741 741 741 739 734 730 736 740 740 739 748 746 761 761 759 756 753 752 758 761 781 798 802 798 770 774 778 781 785 787 786 785 782
802 797 783 780 791 787 776 766 760 751 746 748 745 740 738 741 746 737 744 749 747 748 757 751 764 781 755 767 762 755 749 763 776 792 788 786 769 768 772 781 780 784 783 782 773
803 803 793 787 791 788 779 771 767 750 747 747 745 741 743 742 740 746 750 754 755 751 747 750 765 777 779 781 781 784 780 760 770 788 803 781 762 762 764 771 773 779 779 773 770
806 803 799 801 793 790 783 776 768 764 758 753 750 750 753 769 757 751 754 758 758 755 760 769 781 791 772 766 769 767 780 781 785 769 775 780 782 769 767 769 776 777 775 771 770
810 812 804 803 794 790 780 777 773 770 764 761 758 755 754 753 759 759 762 759 759 765 774 773 770 776 786 755 764 764 758 763 758 752 756 756 754 752 765 772 777 779 772 770 769
804 803 803 800 802 798 785 779 776 772 763 761 760 758 757 759 756 756 758 758 762 774 768 767 798 788 806 763 792 785 781 773 764 764 755 762 753 753 760 763 770 777 771 770 768